Torna al catalogo

CZ-6A DEB

AttivoPO
NORAD 60716·DEBRIS·🇨🇳 China

Lanciato Aug 6, 2024 da Taiyuan Satellite Launch Center

Loading…

Prossimi Passaggi (prossime 24 ore)

TLE

AggiornatoSource: Space-Track

Epoca: Sep 14, 2026, 06:49 UTC

1 60716U 24140DV  26257.28451956  .00000295  00000-0  52421-4 0  9997
2 60716  89.0816 267.1706 0130349 266.1098  92.5203 14.59101387111266

Traccia CZ-6A DEB in tempo reale con AllMySat

Download on the App Store